CHINASAT 18 (ZX 18) (44493 NORAD) Tracking and Keplerian Element Data
This shows tracking and keplerian element data for the satellite.
Feedback or suggestion? Click here.
Element | Value |
Catalog | 44493 |
Name | CHINASAT 18 (ZX 18) |
Epoch Orbit | 63 |
Epoch Day | 258.86991647 |
Epoch Year | 2019 |
RAAN | 135.4603 |
Inclination | 28.4762 |
Eccentricity | 0.7287135 |
Argument of Perigee | 195.8405 |
Mean Anonmoly | 136.1702 |
Mean Motion | 2.2809049 |
Decay Rate | -1.01E-06 |
L1 | 1 44493U 19053A 19258.86991647 -.00000101 00000-0 00000+0 0 9999 |
L2 | 2 44493 28.4762 135.4603 7287135 195.8405 136.1702 2.28090490 635 |
Live tracking and technical data element details for CHINASAT 18 (ZX 18) (NORAD 44493). CHINASAT 18 (ZX 18) can be tracked NOW for your location showing map with azimuth and elevation plus other details from your city location.
Track the satellite on the map from your city or location and see movement details for azimuth, elevation, latitude, longitude, range, height, and movement on the map or in text.
IsCatalogInMostPopularTable: catalog: 44493, numindb: 26
Update: records affected: 1
GetName: 44493 CHINASAT 18 (ZX 18)
Hit Count: updated at: Thu, 05 Dec 2019 18:07:29 GMT